EW5474 Weather Reports


Display with metric or nautical units.
time (UTC)temp
F
wind
direction
speed
MPH
gust
MPH
rain 1hr
in
rain 24hr
in
rain mn
in
humidity
%
barometer
mb
20260504160141 73 187 1.0 8.0 0.00 0.00 0.00 46 1015.4
20260504150538 70 215 1.0 4.0 0.00 0.00 0.00 49 1015.9
20260504150308 70 191 2.0 5.0 0.00 0.00 0.00 48 1015.9
20260504141040 67 215 1.0 5.0 0.00 0.00 0.00 56 1016.0
20260504140526 67 198 0.0 4.0 0.00 0.00 0.00 55 1016.2
20260504130449 62 211 1.0 5.0 0.00 0.00 0.00 63 1016.7
20260504130214 61 166 0.0 3.0 0.00 0.00 0.00 65 1016.8
20260504110225 52 178 1.0 3.0 0.00 0.00 0.00 80 1017.2
20260504100114 52 171 0.0 0.0 0.00 0.00 0.00 77 1017.2
20260504081913 51 178 0.0 2.0 0.00 0.00 0.00 80 1017.6
20260504081407 51 182 0.0 3.0 0.00 0.00 0.00 80 1017.6
20260504080900 51 167 0.0 3.0 0.00 0.00 0.00 80 1017.7
20260504080627 51 188 0.0 0.0 0.00 0.00 0.00 80 1017.8
20260504070243 49 192 0.0 2.0 0.00 0.00 0.00 79 1017.7
20260504060201 49 175 0.0 2.0 0.00 0.00 0.00 77 1017.8
20260504050650 50 151 0.0 3.0 0.00 0.00 0.00 75 1017.9
20260504050150 50 192 1.0 3.0 0.00 0.00 0.00 75 1018.0
20260504045921 50 189 1.0 3.0 0.00 0.00 0.00 75 1018.0
20260504045145 50 210 1.0 4.0 0.00 0.00 0.00 74 1018.0
20260504044638 50 171 1.0 4.0 0.00 0.00 0.00 74 1018.0
20260504044133 50 194 0.0 3.0 0.00 0.00 0.00 74 1018.0
20260504043627 50 173 1.0 4.0 0.00 0.00 0.00 73 1018.0
20260504043121 50 168 1.0 4.0 0.00 0.00 0.00 73 1018.0
20260504042614 50 174 1.0 4.0 0.00 0.00 0.00 73 1018.1
20260504042109 50 183 0.0 2.0 0.00 0.00 0.00 73 1018.0
20260504041603 50 167 1.0 3.0 0.00 0.00 0.00 72 1017.9
20260504041057 50 165 1.0 6.0 0.00 0.00 0.00 72 1018.0
20260504040550 50 159 2.0 6.0 0.00 0.00 0.00 72 1018.0
20260504040104 50 169 1.0 5.0 0.00 0.00 0.00 72 1018.0
20260504035822 50 170 1.0 5.0 0.00 0.00 0.00 71 1017.9
20260504035051 50 200 1.0 6.0 0.00 0.00 0.00 71 1017.9
20260504034549 50 171 1.0 6.0 0.00 0.00 0.00 71 1018.0
20260504034047 50 192 1.0 7.0 0.00 0.00 0.00 70 1017.9
20260504033541 50 160 2.0 7.0 0.00 0.00 0.00 70 1017.9
20260504033035 50 162 2.0 7.0 0.00 0.00 0.00 70 1017.9
20260504032529 50 175 2.0 9.0 0.00 0.00 0.00 70 1017.9
20260504032023 51 163 2.0 9.0 0.00 0.00 0.00 69 1017.8
20260504031517 51 130 1.0 6.0 0.00 0.00 0.00 69 1017.9
20260504031011 51 160 1.0 3.0 0.00 0.00 0.00 68 1017.9
20260504030505 51 183 1.0 6.0 0.00 0.00 0.00 68 1017.9
20260504025959 51 182 2.0 7.0 0.00 0.00 0.00 67 1017.9
20260504025453 51 223 1.0 7.0 0.00 0.00 0.00 67 1017.9
20260504024946 51 192 1.0 8.0 0.00 0.00 0.00 66 1018.0
20260504024441 51 140 1.0 8.0 0.00 0.00 0.00 66 1017.9
20260504023934 51 184 2.0 6.0 0.00 0.00 0.00 65 1017.9
20260504023429 51 186 2.0 7.0 0.00 0.00 0.00 65 1018.0
20260504022923 51 118 1.0 7.0 0.00 0.00 0.00 64 1018.0
20260504022417 51 184 1.0 5.0 0.00 0.00 0.00 64 1018.0
20260504021911 51 159 0.0 4.0 0.00 0.00 0.00 64 1017.9
20260504021405 52 186 0.0 4.0 0.00 0.00 0.00 63 1017.8
20260504020859 52 185 1.0 4.0 0.00 0.00 0.00 63 1017.8
20260504020624 52 182 1.0 4.0 0.00 0.00 0.00 62 1017.7
20260504015847 52 171 0.0 4.0 0.00 0.00 0.00 62 1017.7
20260504015341 52 169 1.0 4.0 0.00 0.00 0.00 62 1017.7
20260504015106 52 182 1.0 4.0 0.00 0.00 0.00 62 1017.6
20260504014329 52 176 1.0 6.0 0.00 0.00 0.00 61 1017.6
20260504013823 52 186 1.0 6.0 0.00 0.00 0.00 61 1017.5
20260504013317 52 169 0.0 2.0 0.00 0.00 0.00 61 1017.4
20260504013042 52 175 1.0 4.0 0.00 0.00 0.00 61 1017.4
20260504012305 52 178 2.0 6.0 0.00 0.00 0.00 61 1017.3
20260504011759 52 167 2.0 7.0 0.00 0.00 0.00 61 1017.2
20260504011253 52 185 2.0 7.0 0.00 0.00 0.00 61 1017.1
20260504010747 52 194 1.0 5.0 0.00 0.00 0.00 60 1017.1
20260504010512 52 142 2.0 6.0 0.00 0.00 0.00 59 1017.0
20260504005736 52 144 1.0 6.0 0.00 0.00 0.00 57 1017.0
20260504005229 53 179 0.0 5.0 0.00 0.00 0.00 54 1016.9
20260504004722 54 355 0.0 0.0 0.00 0.00 0.00 54 1016.7
20260504004217 54 355 0.0 0.0 0.00 0.00 0.00 53 1016.6
20260504003711 55 355 0.0 0.0 0.00 0.00 0.00 51 1016.5
20260504003205 55 355 0.0 0.0 0.00 0.00 0.00 52 1016.4
20260504002659 56 355 0.0 0.0 0.00 0.00 0.00 52 1016.3
20260504002424 56 355 0.0 0.0 0.00 0.00 0.00 52 1016.2
20260504001917 56 355 0.0 0.0 0.00 0.00 0.00 51 1016.1
20260504001140 57 355 0.0 0.0 0.00 0.00 0.00 47 1016.0
20260504000635 57 355 0.0 0.0 0.00 0.00 0.00 42 1016.0
20260504000129 57 355 0.0 0.0 0.00 0.00 0.00 41 1015.9
20260503235623 58 355 0.0 0.0 0.00 0.00 0.00 41 1015.9
20260503235347 58 355 0.0 0.0 0.00 0.00 0.00 40 1015.8
20260503234611 58 355 0.0 0.0 0.00 0.00 0.00 40 1015.8
20260503234105 58 355 0.0 0.0 0.00 0.00 0.00 40 1015.8
20260503233559 58 355 0.0 0.0 0.00 0.00 0.00 39 1015.7
20260503233053 59 355 0.0 0.0 0.00 0.00 0.00 39 1015.7
20260503232600 59 355 0.0 0.0 0.00 0.00 0.00 39 1015.7
20260503232041 59 351 0.0 0.0 0.00 0.00 0.00 38 1015.7
20260503231535 59 351 0.0 0.0 0.00 0.00 0.00 38 1015.6
20260503231029 59 351 1.0 3.0 0.00 0.00 0.00 37 1015.6
20260503230522 60 355 1.0 4.0 0.00 0.00 0.00 36 1015.6
20260503230017 60 342 1.0 3.0 0.00 0.00 0.00 38 1015.6
20260503225510 60 351 1.0 8.0 0.00 0.00 0.00 35 1015.7
20260503225237 60 5 1.0 8.0 0.00 0.00 0.00 35 1015.7
20260503224730 60 340 1.0 4.0 0.00 0.00 0.00 36 1015.7
20260503223953 60 304 1.0 4.0 0.00 0.00 0.00 35 1015.6
20260503223447 60 149 0.0 3.0 0.00 0.00 0.00 35 1015.5
20260503222941 60 333 0.0 3.0 0.00 0.00 0.00 36 1015.6
20260503222435 60 44 1.0 4.0 0.00 0.00 0.00 35 1015.6
20260503221929 60 300 2.0 6.0 0.00 0.00 0.00 36 1015.6
20260503221423 61 325 2.0 6.0 0.00 0.00 0.00 35 1015.5
20260503220917 60 355 1.0 4.0 0.00 0.00 0.00 34 1015.5
20260503220411 60 265 1.0 4.0 0.00 0.00 0.00 32 1015.5
20260503215905 61 355 1.0 5.0 0.00 0.00 0.00 33 1015.4
20260503215629 61 346 2.0 6.0 0.00 0.00 0.00 35 1015.5
20260503215126 61 107 2.0 6.0 0.00 0.00 0.00 34 1015.6
20260503214346 61 309 2.0 7.0 0.00 0.00 0.00 34 1015.6
20260503213843 61 329 1.0 7.0 0.00 0.00 0.00 33 1015.5
20260503213342 61 338 1.0 5.0 0.00 0.00 0.00 34 1015.6
20260503212843 61 355 1.0 8.0 0.00 0.00 0.00 34 1015.6
20260503212353 61 342 2.0 9.0 0.00 0.00 0.00 33 1015.6
20260503211842 61 344 1.0 9.0 0.00 0.00 0.00 35 1015.5
20260503211341 61 296 1.0 7.0 0.00 0.00 0.00 33 1015.5
20260503211109 61 318 1.0 7.0 0.00 0.00 0.00 34 1015.6
20260503210338 61 209 1.0 5.0 0.00 0.00 0.00 33 1015.5
20260503210109 61 204 0.0 5.0 0.00 0.00 0.00 32 1015.4
20260503205336 61 315 2.0 11.0 0.00 0.00 0.00 35 1015.5
20260503204835 61 309 4.0 11.0 0.00 0.00 0.00 33 1015.5
20260503204335 61 50 4.0 13.0 0.00 0.00 0.00 34 1015.5
20260503203834 61 355 4.0 13.0 0.00 0.00 0.00 33 1015.5
20260503203606 62 331 4.0 11.0 0.00 0.00 0.00 37 1015.5
20260503202835 62 71 3.0 11.0 0.00 0.00 0.00 34 1015.5
20260503202335 62 5 1.0 5.0 0.00 0.00 0.00 34 1015.5
20260503201835 62 143 1.0 5.0 0.00 0.00 0.00 36 1015.6
20260503201329 62 257 1.0 5.0 0.00 0.00 0.00 34 1015.6
20260503200823 61 19 2.0 5.0 0.00 0.00 0.00 37 1015.6
20260503200317 61 307 2.0 7.0 0.00 0.00 0.00 34 1015.7
20260503195811 61 245 2.0 9.0 0.00 0.00 0.00 34 1015.8
20260503195305 61 315 2.0 9.0 0.00 0.00 0.00 37 1015.7
20260503194759 60 355 3.0 9.0 0.00 0.00 0.00 34 1015.8
20260503194253 61 329 3.0 11.0 0.00 0.00 0.00 39 1015.9
20260503193746 61 5 2.0 11.0 0.00 0.00 0.00 36 1015.9
20260503193241 61 11 2.0 9.0 0.00 0.00 0.00 36 1016.0
20260503192735 61 292 2.0 11.0 0.00 0.00 0.00 35 1016.1
20260503192228 61 43 2.0 11.0 0.00 0.00 0.00 40 1016.1
20260503191722 60 345 3.0 11.0 0.00 0.00 0.00 37 1016.3
20260503191447 60 44 3.0 11.0 0.00 0.00 0.00 37 1016.4
20260503190711 60 42 2.0 8.0 0.00 0.00 0.00 36 1016.4
20260503190205 61 333 2.0 8.0 0.00 0.00 0.00 36 1016.5
20260503185659 61 260 4.0 10.0 0.00 0.00 0.00 36 1016.5
20260503185153 61 342 4.0 10.0 0.00 0.00 0.00 37 1016.6
20260503184647 61 311 3.0 8.0 0.00 0.00 0.00 36 1016.5
20260503184141 61 25 3.0 8.0 0.00 0.00 0.00 39 1016.5
20260503183906 61 355 3.0 8.0 0.00 0.00 0.00 37 1016.5
20260503183141 61 338 3.0 8.0 0.00 0.00 0.00 36 1016.6
20260503182623 62 333 3.0 9.0 0.00 0.00 0.00 39 1016.6
20260503182348 61 46 3.0 9.0 0.00 0.00 0.00 38 1016.7
20260503181611 60 267 3.0 10.0 0.00 0.00 0.00 37 1016.7
20260503181108 61 77 4.0 11.0 0.00 0.00 0.00 36 1016.7
20260503181102 61 11 3.0 11.0 0.00 0.00 0.00 39 1016.7
20260503180105 62 290 3.0 12.0 0.00 0.00 0.00 35 1016.7
20260503175547 60 231 3.0 12.0 0.00 0.01 0.00 38 1016.7
20260503175041 61 301 3.0 11.0 0.00 0.01 0.00 37 1016.7
20260503174535 60 300 4.0 11.0 0.00 0.01 0.00 38 1016.7
20260503174029 60 0 4.0 11.0 0.00 0.01 0.00 42 1016.9
20260503173523 61 281 2.0 11.0 0.00 0.01 0.00 36 1016.9
20260503173017 60 53 2.0 8.0 0.00 0.01 0.00 39 1017.0
20260503172742 60 14 2.0 5.0 0.00 0.01 0.00 37 1017.0
20260503172005 60 45 4.0 15.0 0.00 0.01 0.00 40 1017.0
20260503171458 59 294 5.0 15.0 0.00 0.01 0.00 41 1017.1
20260503170953 60 32 6.0 16.0 0.00 0.01 0.00 39 1017.1
20260503170447 59 0 5.0 16.0 0.00 0.01 0.00 39 1017.0